Temperature
7 7 6 6 6 5 5 5 5 5 4 4 4 4 4 4 3 3 3 2 1 1 1 0 0 0 -0 -1 -1 -1 -2 -2 -2 -1 -0 -1 -1 -1 -1 -1 -1 -1 -1
6 6 6 5 5 5 5 4 4 4 4 4 3 3 3 3 2 2 1 1 0 0 -0 -0 -1 -1 -1 -1 -2 -2 -2 -2 -2 -2 -1 -2 -2 -2 -2 -2 -2 -2 -2
6 5 5 5 4 4 4 4 4 3 3 3 2 2 2 2 1 1 1 0 -0 -0 -1 -1 -1 -2 -2 -2 -2 -2 -2 -3 -3 -3 -2 -2 -2 -3 -3 -3 -3 -3 -2
5 4 4 4 4 4 3 3 3 3 2 2 2 1 1 1 1 0 -0 -0 -1 -1 -1 -2 -2 -2 -2 -3 -3 -3 -3 -3 -3 -3 -3 -3 -3 -3 -3 -4 -4 -3 -3
4 4 4 3 3 3 3 3 2 2 2 1 1 1 0 -0 -0 -1 -1 -2 -2 -2 -2 -3 -3 -3 -3 -3 -3 -3 -3 -3 -3 -3 -3 -3 -3 -3 -4 -4 -4 -4 -4
4 4 3 3 3 3 2 2 2 1 1 0 -0 -1 -1 -1 -1 -2 -2 -3 -3 -3 -3 -3 -3 -3 -3 -3 -3 -3 -3 -3 -3 -3 -3 -3 -3 -3 -4 -4 -4 -4 -4
3 3 3 2 2 2 1 1 1 0 -0 -1 -1 -2 -2 -2 -2 -3 -3 -4 -4 -4 -4 -4 -4 -4 -4 -4 -3 -3 -3 -3 -3 -3 -3 -3 -3 -3 -3 -4 -4 -4 -4
3 3 2 2 1 1 0 0 -0 -1 -1 -2 -2 -3 -3 -3 -3 -4 -4 -4 -4 -4 -4 -4 -4 -4 -4 -4 -4 -4 -4 -4 -4 -4 -4 -3 -3 -3 -3 -4 -4 -4 -5
2 2 1 1 0 -0 -0 -1 -1 -2 -2 -3 -3 -3 -4 -3 -4 -4 -5 -5 -5 -5 -5 -4 -4 -4 -4 -4 -4 -4 -4 -4 -4 -4 -4 -4 -4 -4 -4 -4 -4 -5 -5
1 1 1 0 -0 -1 -1 -2 -2 -3 -3 -3 -4 -4 -4 -4 -4 -5 -5 -5 -5 -5 -5 -5 -5 -4 -4 -4 -4 -4 -4 -4 -4 -4 -4 -4 -4 -4 -4 -4 -4 -4 -5
1 0 0 -0 -1 -1 -2 -2 -3 -3 -4 -4 -5 -5 -5 -5 -5 -5 -5 -5 -5 -5 -5 -5 -5 -5 -5 -4 -4 -4 -4 -4 -4 -4 -4 -4 -4 -4 -4 -4 -4 -4 -5
0 -0 -0 -1 -1 -2 -3 -3 -3 -4 -5 -5 -5 -6 -6 -6 -6 -6 -5 -5 -5 -5 -5 -5 -5 -5 -5 -5 -4 -4 -4 -4 -4 -4 -4 -4 -5 -5 -4 -4 -5 -5 -5
-0 -1 -1 -2 -2 -3 -3 -4 -4 -5 -5 -6 -6 -6 -6 -6 -6 -6 -6 -6 -6 -5 -5 -5 -5 -5 -5 -5 -5 -5 -5 -5 -5 -5 -5 -5 -5 -5 -5 -5 -5 -5 -5
-1 -1 -2 -3 -3 -3 -4 -5 -5 -6 -6 -6 -6 -6 -6 -6 -6 -6 -6 -6 -6 -5 -5 -5 -5 -5 -5 -5 -5 -5 -5 -5 -6 -6 -6 -5 -5 -5 -6 -6 -6 -6 -6
-2 -2 -3 -3 -4 -4 -5 -5 -6 -6 -6 -7 -7 -6 -6 -6 -6 -6 -6 -6 -6 -6 -6 -5 -5 -5 -6 -6 -6 -6 -6 -6 -6 -6 -6 -6 -6 -6 -6 -6 -6 -6 -6
-2 -3 -3 -4 -4 -5 -5 -6 -6 -6 -6 -7 -7 -7 -7 -6 -6 -6 -6 -6 -6 -6 -6 -6 -6 -6 -6 -6 -6 -6 -6 -6 -6 -6 -6 -6 -6 -6 -6 -6 -6 -6 -7
-3 -3 -4 -4 -5 -6 -6 -7 -7 -6 -7 -6 -6 -6 -7 -7 -7 -7 -6 -6 -6 -6 -6 -6 -7 -7 -7 -7 -7 -7 -7 -7 -7 -7 -7 -7 -7 -7 -7 -7 -7 -7 -7
-3 -3 -4 -5 -6 -6 -7 -7 -7 -7 -7 -7 -6 -6 -7 -7 -7 -7 -7 -7 -7 -7 -7 -7 -7 -7 -7 -7 -7 -7 -7 -7 -7 -7 -7 -7 -7 -7 -7 -7 -7 -7 -7
-4 -4 -5 -5 -6 -7 -7 -7 -8 -8 -8 -8 -7 -7 -7 -7 -7 -7 -7 -7 -7 -7 -8 -8 -8 -8 -8 -8 -8 -8 -8 -8 -8 -7 -7 -7 -7 -7 -7 -7 -7 -7 -8
-4 -4 -5 -6 -7 -7 -7 -8 -8 -8 -8 -8 -8 -8 -8 -8 -8 -7 -7 -8 -8 -8 -8 -8 -8 -8 -8 -8 -8 -8 -8 -8 -8 -8 -8 -8 -8 -8 -8 -8 -8 -8 -8
-5 -5 -6 -6 -7 -7 -8 -8 -8 -8 -8 -8 -8 -8 -8 -8 -8 -8 -8 -8 -8 -8 -8 -8 -8 -8 -8 -8 -8 -8 -8 -8 -8 -8 -8 -8 -8 -8 -8 -8 -8 -8 -8
-5 -6 -7 -7 -7 -8 -8 -8 -8 -8 -8 -9 -9 -8 -8 -8 -8 -8 -8 -8 -9 -9 -9 -9 -9 -9 -8 -8 -8 -8 -8 -8 -8 -8 -8 -8 -8 -8 -8 -8 -9 -9 -9
-6 -7 -7 -7 -8 -8 -8 -8 -8 -9 -9 -9 -9 -9 -9 -9 -9 -8 -9 -9 -9 -9 -9 -9 -9 -9 -8 -8 -9 -9 -8 -8 -8 -8 -9 -9 -9 -9 -9 -9 -9 -9 -9
-7 -7 -8 -8 -8 -8 -9 -9 -9 -9 -9 -9 -9 -9 -9 -9 -9 -9 -9 -9 -9 -9 -9 -9 -9 -9 -9 -9 -9 -8 -8 -8 -9 -9 -9 -9 -9 -9 -9 -9 -9 -9 -9
-7 -8 -8 -8 -9 -9 -9 -9 -9 -9 -9 -9 -9 -9 -9 -9 -9 -9 -9 -9 -9 -9 -9 -9 -9 -9 -9 -9 -9 -9 -8 -9 -9 -9 -9 -9 -9 -9 -9 -9 -9 -9 -10
-8 -8 -8 -9 -9 -9 -9 -10 -10 -10 -10 -10 -10 -10 -10 -9 -9 -9 -9 -9 -9 -9 -9 -9 -9 -9 -9 -9 -9 -9 -9 -9 -9 -9 -9 -9 -9 -9 -9 -9 -9 -10 -10
Wind_Speed
4 5 6 6 7 8 8 10 10 11 12 13 13 14 15 16 16 15 16 17 18 18 18 19 20 20 17 16 16 16 16 17 20 23 19 17 19 19 17 18 20 20 19
5 6 7 7 8 9 10 11 12 13 13 14 14 15 16 16 16 17 18 18 18 19 19 20 21 17 20 17 16 18 17 18 19 24 21 17 19 18 18 19 16 16 18
6 7 8 9 10 11 12 13 13 14 15 15 15 16 16 16 17 17 18 19 19 19 20 20 20 19 20 17 18 17 16 16 17 20 22 17 16 15 16 17 19 17 17
7 8 10 11 11 12 13 14 14 15 16 16 16 17 17 16 16 17 17 18 19 19 19 19 20 19 20 20 18 19 17 17 17 18 19 17 15 15 13 14 15 15 16
9 10 11 11 12 13 14 15 15 16 16 17 17 18 17 15 14 14 15 17 18 19 19 19 20 22 24 21 17 16 16 16 16 16 17 16 15 13 13 13 15 15 16
10 11 11 12 13 14 15 16 17 17 17 17 18 18 18 15 20 24 21 19 19 18 18 18 19 21 24 27 30 29 25 18 17 17 17 18 18 16 14 13 14 14 13
10 11 12 13 14 15 16 17 17 18 18 18 18 18 19 20 23 25 25 21 20 19 18 18 16 17 21 18 22 26 26 29 28 20 19 20 18 16 15 16 16 16 16
11 12 12 13 14 16 17 17 18 17 17 18 18 19 19 20 24 25 25 21 20 19 18 18 18 18 17 17 15 16 18 19 21 18 16 17 16 15 13 15 15 16 15
12 13 13 14 15 16 18 18 18 18 18 18 18 19 20 20 22 24 24 17 16 18 17 17 18 19 22 25 18 17 18 17 21 26 27 25 26 26 20 13 13 12 13
13 14 14 15 16 17 18 19 18 17 18 18 18 18 19 20 22 23 24 14 15 15 15 16 20 21 24 25 18 16 17 16 14 15 18 20 19 19 23 15 12 13 10
14 15 15 15 16 17 17 17 17 17 18 18 18 17 18 19 21 22 22 14 14 15 14 13 13 21 24 25 23 17 19 19 15 14 12 12 11 11 12 11 10 10 11
14 15 16 16 15 15 17 17 17 17 17 17 17 17 15 15 17 19 23 22 21 17 15 14 14 22 25 26 21 21 24 21 12 10 11 10 9 9 9 10 10 11 11
15 16 17 17 16 15 16 17 16 15 14 14 14 15 15 14 15 21 23 24 24 18 15 21 24 27 25 19 20 22 19 12 10 10 11 10 9 8 7 7 8 9 10
16 17 16 16 16 16 14 13 13 14 14 14 15 15 15 15 14 13 14 16 18 17 15 18 23 23 18 17 17 14 10 10 10 10 10 9 7 7 7 7 7 8 8
16 16 16 15 16 15 14 13 15 15 15 17 15 15 16 16 17 23 21 16 15 15 16 13 11 10 10 9 10 9 9 8 9 8 8 8 7 7 7 7 7 7 8
15 15 13 13 14 14 15 15 16 18 24 25 25 23 19 22 27 27 27 26 26 24 18 12 11 10 10 10 9 9 8 8 8 7 7 7 7 7 6 6 7 8 9
15 15 13 13 14 14 14 15 16 17 19 22 23 24 23 25 26 26 25 25 23 21 13 10 10 10 10 9 9 9 8 8 7 7 7 7 7 7 7 7 7 8 9
15 15 14 13 13 14 14 15 15 16 17 15 17 21 23 23 24 24 24 20 14 12 9 10 10 10 9 9 9 8 8 7 7 7 7 7 7 7 7 7 7 8 8
14 12 12 13 14 14 14 15 15 16 16 16 15 16 19 20 22 21 18 11 11 11 10 10 10 9 9 9 9 8 8 8 8 7 7 7 7 7 7 7 8 10 9
13 16 16 14 14 14 14 14 15 15 15 15 15 15 14 15 14 13 11 11 10 10 10 10 10 9 9 9 8 8 8 8 8 7 7 7 7 7 7 8 8 8 8
13 14 17 15 13 14 14 14 15 15 14 15 15 16 20 15 14 13 12 11 10 10 10 10 10 9 9 8 8 8 9 8 7 7 7 7 6 6 6 7 7 8 7
13 13 13 13 14 14 15 15 14 15 15 16 15 15 20 14 12 12 11 11 10 10 10 10 10 9 9 8 8 8 8 8 8 7 7 7 6 6 7 7 7 7 7
13 14 14 14 14 17 17 14 14 14 15 15 15 14 13 12 12 12 12 11 10 10 10 9 10 9 8 8 8 8 9 8 8 7 7 7 7 7 7 8 9 9 9
14 14 15 15 14 14 15 15 15 15 15 15 14 14 13 13 13 13 12 11 11 10 10 9 10 11 12 10 8 8 8 8 8 7 9 8 8 7 7 8 9 10 9
13 14 14 14 14 14 14 15 15 15 14 14 14 13 13 13 13 12 12 11 12 11 12 11 9 10 11 12 11 10 11 13 13 9 7 8 9 9 9 9 9 9 9
14 14 14 13 14 14 14 14 15 15 14 14 13 13 13 13 13 12 12 11 11 10 11 10 10 12 13 11 12 14 15 15 15 14 9 8 9 9 9 9 10 10 10
Wind_Direction
352 337 327 324 320 313 307 305 304 302 300 297 295 292 290 287 285 280 275 274 272 272 269 266 264 263 262 259 256 253 252 251 260 270 269 267 262 257 256 255 256 255 254
339 328 324 320 317 312 310 308 306 302 300 298 295 292 290 288 286 282 280 278 276 275 274 271 269 267 263 262 259 257 255 252 255 267 271 269 264 260 257 256 256 255 254
327 320 317 315 314 312 310 308 305 302 299 297 294 291 289 288 286 284 282 280 278 277 276 274 272 270 267 264 262 260 259 257 255 261 268 268 266 261 258 255 254 255 256
317 314 312 312 310 308 306 304 302 300 297 296 294 291 289 286 283 282 282 281 279 277 275 272 270 268 266 266 265 263 261 260 258 259 265 267 263 258 251 252 253 249 251
310 309 308 308 306 304 302 301 301 299 296 294 293 291 289 286 280 277 277 277 276 276 274 272 269 267 265 265 263 261 258 257 258 258 261 263 260 254 247 245 249 252 252
304 303 305 305 304 303 302 302 301 299 297 295 293 293 291 287 286 287 286 284 281 278 276 274 273 271 269 269 268 266 261 256 254 254 258 258 258 254 249 243 243 246 250
299 300 303 303 302 303 303 302 301 300 299 297 295 294 292 290 291 291 290 289 286 283 280 278 277 274 273 270 271 272 272 270 265 261 259 258 259 254 248 244 238 237 242
297 299 302 303 302 303 304 303 302 302 300 298 296 296 294 293 294 295 296 293 287 284 281 279 278 277 275 273 268 267 266 266 267 268 263 264 262 259 250 245 245 243 245
296 300 304 305 304 304 304 304 304 303 300 299 298 297 296 296 296 297 297 294 289 286 284 281 279 279 278 279 276 271 270 267 266 265 263 263 261 259 250 242 235 234 239
303 304 304 303 302 301 302 303 302 301 299 299 296 296 295 295 296 298 299 294 292 291 288 283 279 279 280 281 278 275 274 274 270 268 265 265 265 264 261 245 231 231 232
303 302 301 300 300 301 301 300 301 301 299 298 297 296 296 295 296 296 297 296 293 292 291 288 283 282 282 283 282 278 275 277 274 269 266 260 254 250 249 241 228 228 229
303 301 300 301 302 300 300 301 301 302 301 301 300 301 299 298 296 297 298 298 298 295 293 291 288 288 287 287 286 282 283 284 278 273 268 260 253 249 242 232 224 224 226
302 300 301 302 301 300 299 301 302 301 299 300 300 300 301 300 299 299 300 300 299 296 291 290 292 294 294 291 288 288 288 283 275 271 269 263 254 247 238 232 224 221 223
300 301 301 301 301 300 298 297 296 298 298 298 299 299 300 301 301 303 302 302 300 297 293 292 291 290 287 284 286 286 278 272 270 269 269 266 260 247 237 230 226 218 223
300 300 300 300 299 300 298 294 294 290 289 293 295 297 299 300 299 303 305 304 303 299 302 297 292 289 288 286 285 281 277 273 272 267 265 264 255 243 237 227 223 218 221
298 299 300 300 299 299 300 298 289 286 291 291 290 291 293 293 299 304 306 307 307 307 306 298 296 294 294 293 292 287 281 277 274 270 264 261 256 248 241 228 221 224 228
293 295 297 296 297 298 299 300 302 300 295 294 293 295 295 298 302 305 306 308 308 308 301 296 295 295 294 292 290 287 284 281 276 269 264 262 257 250 244 235 226 227 229
292 292 291 292 294 295 296 297 298 301 304 303 300 298 299 301 303 305 306 309 305 303 296 295 295 294 292 289 288 286 284 282 275 269 264 259 256 251 245 239 231 229 229
292 291 292 293 293 293 295 295 295 296 297 299 301 302 303 305 306 304 305 301 299 298 297 295 293 291 289 287 285 282 280 279 276 270 264 257 253 250 246 240 236 232 230
290 288 291 293 293 293 294 295 295 296 296 297 299 301 306 306 304 305 305 301 297 295 296 295 294 290 289 286 284 281 278 275 273 268 265 259 253 248 245 241 237 235 232
293 293 293 292 290 291 293 294 294 294 295 296 296 297 300 302 300 300 300 298 296 296 296 295 293 291 287 285 282 280 278 276 272 268 265 260 253 248 245 243 239 237 237
291 291 292 292 292 292 293 293 293 293 294 295 296 298 300 299 295 294 296 296 294 291 292 291 289 286 284 283 282 280 278 276 273 270 265 259 252 248 244 240 238 237 234
291 290 291 292 293 294 295 293 293 293 294 294 295 296 297 296 295 295 295 294 292 291 289 287 284 284 283 281 278 275 275 275 274 272 267 262 255 249 244 241 238 237 236
290 291 293 295 295 294 294 294 294 294 294 294 294 294 294 295 294 294 293 291 290 289 287 285 282 282 282 283 280 275 273 274 275 270 262 261 258 253 246 242 240 238 237
291 292 293 294 294 294 294 294 294 294 294 294 293 293 293 293 293 293 292 290 290 288 287 286 282 282 282 282 281 278 277 276 273 270 261 256 254 251 249 245 242 242 239
293 293 293 293 292 292 293 293 294 294 294 294 293 292 292 292 292 292 292 289 289 289 288 286 282 282 283 282 280 278 279 278 274 267 259 256 252 250 246 245 245 242 242
Height
1516 1514 1511 1508 1506 1503 1499 1496 1493 1489 1485 1481 1477 1473 1469 1465 1461 1457 1452 1449 1444 1441 1438 1435 1431 1429 1426 1423 1421 1418 1415 1413 1405 1395 1399 1400 1400 1398 1396 1395 1394 1393 1392
1512 1510 1507 1504 1501 1497 1494 1490 1486 1482 1478 1474 1469 1464 1460 1455 1451 1447 1442 1439 1435 1431 1428 1424 1420 1418 1415 1413 1410 1407 1405 1402 1398 1389 1386 1389 1389 1388 1387 1386 1385 1383 1382
1508 1505 1502 1499 1496 1492 1488 1484 1480 1475 1470 1466 1461 1455 1450 1446 1441 1437 1433 1428 1424 1420 1417 1413 1410 1407 1404 1402 1399 1396 1394 1392 1389 1383 1376 1378 1378 1378 1377 1376 1375 1374 1372
1504 1501 1497 1494 1490 1486 1481 1477 1472 1467 1462 1457 1452 1446 1441 1436 1431 1427 1422 1417 1413 1409 1406 1402 1399 1396 1393 1391 1388 1386 1384 1381 1379 1374 1369 1368 1367 1368 1367 1366 1365 1364 1363
1499 1495 1492 1488 1484 1479 1474 1469 1464 1459 1453 1448 1442 1437 1432 1426 1421 1417 1412 1407 1402 1398 1394 1391 1388 1385 1382 1380 1378 1375 1373 1370 1368 1365 1361 1359 1357 1358 1357 1356 1355 1355 1354
1493 1490 1486 1481 1477 1472 1467 1461 1456 1450 1444 1439 1433 1427 1422 1417 1412 1407 1403 1397 1392 1388 1383 1380 1377 1374 1371 1369 1367 1365 1363 1360 1357 1354 1351 1348 1347 1348 1348 1347 1346 1346 1345
1488 1484 1479 1474 1469 1464 1459 1453 1447 1441 1436 1430 1424 1418 1412 1407 1402 1397 1393 1388 1383 1378 1374 1370 1367 1364 1361 1358 1355 1353 1351 1350 1348 1346 1341 1338 1338 1338 1339 1337 1336 1335 1335
1482 1477 1473 1467 1462 1457 1451 1445 1439 1433 1427 1421 1415 1409 1403 1397 1393 1388 1383 1378 1373 1368 1365 1361 1357 1354 1352 1349 1345 1342 1339 1337 1336 1334 1331 1328 1328 1328 1328 1327 1327 1326 1326
1475 1471 1466 1461 1455 1449 1443 1438 1431 1425 1418 1412 1406 1400 1394 1388 1384 1379 1375 1369 1364 1359 1356 1352 1349 1345 1342 1340 1337 1333 1329 1326 1325 1323 1321 1319 1318 1318 1318 1317 1317 1317 1316
1469 1464 1459 1454 1448 1442 1436 1429 1423 1417 1410 1403 1397 1391 1385 1380 1375 1371 1367 1362 1356 1352 1347 1344 1340 1337 1334 1331 1328 1324 1320 1317 1315 1312 1310 1309 1308 1307 1307 1307 1307 1307 1307
1462 1457 1452 1446 1441 1434 1428 1421 1415 1408 1401 1395 1388 1383 1378 1372 1367 1364 1360 1355 1350 1344 1340 1335 1332 1329 1325 1322 1320 1316 1312 1309 1306 1303 1301 1299 1297 1297 1297 1297 1298 1299 1300
1455 1449 1444 1439 1433 1426 1420 1413 1407 1401 1393 1387 1380 1375 1370 1365 1361 1356 1352 1348 1344 1338 1332 1328 1324 1320 1317 1313 1310 1306 1304 1301 1298 1295 1292 1290 1289 1289 1288 1288 1289 1290 1291
1447 1442 1436 1431 1425 1419 1412 1406 1399 1393 1387 1380 1374 1368 1362 1358 1354 1349 1345 1340 1335 1331 1325 1320 1316 1312 1308 1304 1301 1298 1295 1292 1289 1287 1285 1283 1282 1282 1281 1281 1282 1283 1284
1439 1434 1428 1422 1416 1411 1405 1399 1392 1386 1380 1374 1368 1362 1356 1351 1346 1342 1337 1332 1327 1322 1317 1312 1308 1303 1300 1296 1292 1289 1287 1284 1282 1280 1278 1276 1275 1275 1274 1275 1275 1276 1277
1432 1426 1421 1415 1409 1402 1397 1392 1385 1379 1375 1368 1362 1356 1350 1343 1339 1336 1331 1325 1320 1315 1310 1304 1300 1296 1292 1289 1285 1282 1280 1277 1275 1273 1272 1270 1269 1269 1268 1269 1269 1270 1271
1424 1419 1413 1407 1401 1395 1388 1382 1376 1372 1366 1361 1355 1350 1343 1338 1333 1328 1323 1318 1313 1308 1303 1297 1293 1290 1286 1283 1279 1276 1274 1272 1270 1268 1266 1265 1264 1264 1263 1263 1264 1264 1265
1417 1411 1406 1400 1394 1388 1381 1374 1367 1361 1357 1352 1347 1341 1336 1331 1326 1320 1315 1310 1305 1301 1296 1291 1288 1284 1280 1277 1274 1271 1268 1266 1264 1263 1261 1260 1259 1258 1258 1258 1258 1259 1259
1410 1404 1398 1392 1387 1381 1374 1368 1362 1354 1347 1342 1338 1333 1328 1323 1318 1313 1308 1303 1298 1294 1290 1286 1282 1278 1275 1272 1269 1266 1263 1261 1259 1257 1256 1255 1254 1254 1253 1253 1253 1253 1254
1402 1396 1391 1385 1379 1373 1367 1361 1355 1349 1342 1335 1329 1325 1321 1316 1311 1306 1301 1297 1292 1288 1284 1280 1276 1273 1269 1266 1263 1261 1258 1256 1254 1253 1251 1250 1249 1248 1248 1248 1248 1248 1249
1393 1388 1383 1377 1371 1366 1360 1354 1348 1342 1336 1330 1324 1318 1314 1309 1303 1299 1295 1291 1286 1282 1278 1274 1271 1267 1264 1261 1258 1256 1253 1251 1249 1248 1246 1245 1244 1243 1243 1243 1243 1243 1243
1385 1380 1375 1369 1364 1359 1353 1347 1341 1335 1329 1323 1317 1312 1308 1303 1298 1293 1289 1284 1280 1276 1272 1269 1265 1262 1259 1256 1253 1251 1248 1246 1244 1243 1241 1240 1239 1238 1238 1237 1237 1238 1238
1377 1372 1366 1361 1356 1351 1345 1340 1334 1328 1322 1316 1310 1305 1301 1296 1291 1287 1282 1278 1274 1270 1266 1263 1259 1256 1253 1251 1248 1246 1243 1241 1239 1238 1236 1235 1234 1233 1232 1232 1232 1232 1232
1369 1364 1358 1353 1348 1343 1337 1332 1326 1321 1315 1309 1304 1298 1294 1289 1285 1280 1276 1272 1268 1264 1260 1257 1253 1250 1248 1245 1243 1240 1238 1236 1234 1233 1231 1230 1228 1228 1227 1226 1226 1226 1226
1361 1356 1351 1345 1340 1335 1329 1324 1318 1313 1308 1302 1297 1292 1287 1283 1278 1274 1269 1265 1261 1258 1254 1251 1248 1244 1242 1239 1237 1235 1233 1231 1229 1227 1226 1224 1223 1222 1221 1220 1220 1220 1220
1353 1348 1343 1337 1332 1327 1321 1316 1310 1305 1300 1295 1290 1285 1280 1276 1271 1267 1263 1259 1255 1251 1248 1245 1241 1238 1236 1234 1231 1229 1227 1225 1224 1222 1220 1219 1217 1216 1215 1214 1214 1214 1213
1345 1340 1334 1329 1324 1318 1313 1308 1302 1298 1293 1288 1283 1278 1274 1269 1265 1260 1256 1253 1249 1245 1242 1238 1235 1233 1230 1228 1225 1223 1221 1219 1218 1216 1215 1213 1211 1210 1209 1208 1208 1207 1207